軌道要素
Epoch 2014 Aug. 11.0 TT = JDT 2456880.5
T 2014 Aug. 3.92209 TT MPCW
q 1.8433745 (2000.0) P Q
n 0.15148324 Peri. 347.72764 +0.99971076 +0.00526693
a 3.4851890 Node 12.04469 +0.00707220 +0.86820408
e 0.4710833 Incl. 6.45678 -0.02298670 +0.49617933
P 6.51
From 61 observations 2014 Sept. 2-Nov. 17, mean residual 0".5.
|